"Pseudo-MPEC" for A10evjB

Created 2019 Jul 17 19:07:03 UT using Find_Orb

Click here for an explanation of pseudo-MPECs

 
 Astrometry: 
     A10evjB  C2019 06 29.58115800 31 40.48 -18 25 30.9    ~6TJM 18.36oVNEOCPT08
     A10evjB  C2019 06 29.58440300 31 40.48 -18 25 13.6    ~6TJM 18.47oVNEOCPT08
     A10evjB  C2019 06 29.59212400 31 40.77 -18 24 29.6    ~6TJM 18.25oVNEOCPT08
     A10evjB  C2019 06 29.60355700 31 41.13 -18 23 27.3    ~6TJM 17.99oVNEOCPT08
     A10evjB -C2019 07 01S4u17*1DIRsMqNnUFhHV/Dyf;cy6ge(XoFj:obFh6qp^M=MOw]^BG40
     A10evjB -C2019 07 01]J]$Mk8D$-kn!:0]FsS+J2PHohD,m',KTIplGtSlhU-S1Dy^Q^_pG40
     A10evjB -C2019 07 01i$f1Hr$)%O7(F]Ot6BcE)0MoAstrometryo$TTZJw8j.:cgChp4JG40
     A10evjB -C2019 07 01pqykbu.a$$r+sg0'uD,r7vZQ_GOredacted;'rcQh[+3wA^+EVjsG40
     A10evjB  C2019 07 01.57224400 33 04.17 -15 24 49.7    ~71Jb 17.92oVNEOCPT08
     A10evjB  C2019 07 01.57542300 33 04.23 -15 24 32.0    ~71Jb 17.79oVNEOCPT08
     A10evjB  C2019 07 01.57893400 33 04.31 -15 24 14.1    ~71Jb 17.74oVNEOCPT08
     A10evjB  C2019 07 01.58244900 33 04.38 -15 23 54.9    ~71Jb 18.22oVNEOCPT08
     A10evjB  C2019 07 01.58556500 33 04.49 -15 23 38.4    ~71Jb 17.71oVNEOCPT08
     A10evjB  C2019 07 01.59045200 33 04.63 -15 23 12.8    ~71Jb 17.75oVNEOCPT08
     A10evjB KC2019 07 02wTry`Dj]YAvp$RZ/AonTluP*ZuaJH^%#1Xc/Hhiwo:U!Nvw3QC.[850
     A10evjB KC2019 07 02MB04lYMK68)SGQT6uQ_i``=$]n7h7yIdAYShlZ9\rC6?Nj/#unl[850
     A10evjB KC2019 07 02Uc_lWQ4nP]YLpf:=FSyrP5k%Y!\ToO5$8OJp^0uw6l=Pcc^b54R'850
     A10evjB  C2019 07 02.56814400 33 40.46 -13 57 11.1    ~72Fb 18.23cVNEOCPT05
     A10evjB  C2019 07 02.57500300 33 40.62 -13 56 35.7    ~72Fb 18.32cVNEOCPT05
     A10evjB  C2019 07 02.57821600 33 40.69 -13 56 18.7    ~72Fb 18.44cVNEOCPT05
     A10evjB  C2019 07 02.58861700 33 40.93 -13 55 24.1    ~72Fb 18.36cVNEOCPT05
     A10evjB 1C2019 07 02m1(PfQYU0q*ZAd?`O:7e`UIrTf.Bi6Oq@oSK2$/mFtf`#Zwhu,^xQ62
     A10evjB 1C2019 07 02Y8dA[\0Kf[E[]x`ppcHD)bGc`58FN7%f!!80L$kq_OoELpbNnE7;Q62
     A10evjB 1C2019 07 02bQ*!wX8WymW+B'cgxIH#;tMWHA_6ejt@h-2y,%0`eRgN@fQ6hT,'Q62
     A10evjB 1C2019 07 02cdH@$8_n3Y6@k5pf[RTdLt;=JIXQfvT`Tly#YX9SI)Y@)FU5T?b(Q62
     A10evjB -C2019 07 035YD_(jHxD/-kb0JAIXj,7di7@%k9AM(qg\MX^LVG3!0CQF^ASu`BG40
     A10evjB -C2019 07 033Z!XsB,VvWw2+/q1fDgNgGYg+Ut';qnurHof$kxV$)eO:+m8MvYtG40
     A10evjB -C2019 07 03UFdAa%l/Tdi#3V[%T7]7#f+.YC[/VV?V6)QwcC`=.O@A_V9G7*J#G40
     A10evjB -C2019 07 035372HFBX?ynIPE2N+O65J1tZ2h'#r,[b?rNArqlJH;H'N-0BZP=nG40
     A10evjB #C2019 07 03_v?W(Ts!HBS?BEiE`CGgLTQjw2@n\SVVd^0^_k,(D%$iH#)EJJqYU69
     A10evjB #C2019 07 03!Vg6$Hs1$)ucm3^s^(R=KtTFE$q$34mJl;w#@ZR]M@9f9xHlotFiU69
     A10evjB #C2019 07 03NFhSFY+4L/h`]b@jEH0^h#66I+0pO_=l4KtRQ)3sjp[d:Zf$sT\/U69
     A10evjB KC2019 07 04k+oUUxnLo``31Zf=S6bIL,mBYG$CldlH?jk_#,Mh@m_^FvI'gbNd850
     A10evjB KC2019 07 04BuBeB,WjG`q`=W3,xE6LA7vwr=`F'(uJm=0$a6%Hbe?sSKqYK.`F850
     A10evjB KC2019 07 04y\DKy*q[fF_3do7%`'[Gu4LmHwU.D.DhYCLPX8P=K:gbtMX!O9$(I47
     A10evjB KC2019 07 04OKPL^ph(8G%dQ^(U'vBCpo!LxoNWw#(M*ceTQmmyL1P042fo/b9YI47
     A10evjB KC2019 07 04X:+0c4g`7pguYRP0yCcLTn6BV8i?QIQE.a/B)IZS7UfC_vw(:#7.850
     A10evjB KC2019 07 049YhJKXiV't55e24Fq%U]#;4C(#46pn$@s6cPq],asqsk_?=etTB5I47
     A10evjB KC2019 07 04hv3JyG`Io?ji/-s'k%hPa/5LT'vjIL#tK$4Ot-?==LjDqI25ysEh711
     A10evjB KC2019 07 04SKw-RMwVT*KYT-s$CnAK=Sap`^31[@/rN/X49PiFV$SprtviM7_-711
     A10evjB KC2019 07 04wx@bY;ZB3.+9@tSq=S'3X[**UZt]q3jn1e0EEg9SM,NG9EmLQ%a5711
     A10evjB KC2019 07 04/=o]fqD4\/E'ijI(wPiKQ(JoOQT86/+UcL.`cq_Da)GC'w2,NoWw291
     A10evjB KC2019 07 04DbxS4qdsME-5`JaEHOpE0m2v[MM%5KXj9)Tgd[fqqLuXLC4U93ea291
     A10evjB KC2019 07 04E[7Zcd`xjrB)VPJ@27k)=f;i/Ox#=dby!B?\n//7meg=+S.v6Lb+291
     A10evjB  C2019 07 04.50128800 34 41.42 -11 12 20.1    ~74J7 18.03oVNEOCPT08
     A10evjB  C2019 07 04.50489700 34 41.56 -11 12 02.4    ~74J7 18.60oVNEOCPT08
     A10evjB  C2019 07 04.51078800 34 41.60 -11 11 33.5    ~74J7 18.35oVNEOCPT08
     A10evjB  C2019 07 04.52353500 34 41.85 -11 10 31.4    ~74J7 18.41oVNEOCPT08
     A10evjB "C2019 07 05oK4HNQel9G5ZgLOP[fCF-;+aI'wOC)yH=GwH2CaQkQ12W`b8,84!G40
     A10evjB "C2019 07 05COJ$TGcSo[F)2jEcclick5vOG-5/Eo]*pZYu^9Ohere_#(T^\UgnG40
     A10evjB "C2019 07 05y224ba[IPDnF:+Pd?c_##hbZJq,L_UKLA9h\t82,32l=w1[6i^YQG40
     A10evjB KC2019 07 05]6j(uy-!@FjV@(B9hUKZsFTm5lLfd/CTSK),Y+L%u\W%9EZZ-u;h711
     A10evjB KC2019 07 05;-:[K#$%1*/=c:DBiBF+5kf.KM)+iqFve\B:'SDjqfor-*;PMALM711
     A10evjB KC2019 07 05MbsmpxtS*c$*:if1[C?%463rQ=LiMS+FFUyA.)^23xUT:A5^`nLv711
     A10evjB KC2019 07 06'x'xxSBL-ML-)K(k.gXve3*ZTsr:gD6oB=GuKi!X='eSHE;5#7T7L01
     A10evjB KC2019 07 06A4k:,`\*vQ'nR?BWQ9^pmk8-Spxb-tvRh]8JgiUH7.J0*'aC@Wj1L01
     A10evjB KC2019 07 06P\]RqE_kvlYY^*'_IGM(QUCNuU`+!YhSPhmAd9TCw^CYxlwE@ZQOL01
     A10evjB KC2019 07 06#%$XDcyw,,MtSn^lI'Da$#9KT9E4jN8I,pGJ4FH@-u:`DRSG3Qb7L01
     A10evjB KC2019 07 06T.oaC9i5bu_0Fs0Hm=w-$A_1Brb+da$0B!I161avu-I,U=I,$MN^L01
     A10evjB KC2019 07 06Jj/TJ5uZ1v)B3o]cjj2vy)F,.M4Lf^explanationfHK]r`XSq.\L01
     A10evjB KC2019 07 07mu+Q^vuKrOTr5bI4@a+`/Vw(/[gq49W?RS;#%DWRYtR(bLCm2SI0E94
     A10evjB KC2019 07 075??p`]AuQxn)+c,1-==fkoHTul!-EKq4D7^+N%Z%XNb=8HNE@kf1E94
     A10evjB KC2019 07 07:4?5Aw%Fn9j_wO4W/mi80,PX5OxZ;0O*O0J;jpd];I5j7FT_ilouE94
     A10evjB KC2019 07 07vMdKLyg6NK?l5Db%:L=UO,g,TLuFAJBHiGthhd9^bO(J.vPKR1RGE94
     A10evjB 9C2019 07 09=`sl,:q(b`O7NUDWm,,u1;L;@$u,0B#J;p0/g8L'AcU9ryKf_1;JG40
     A10evjB 9C2019 07 09gfGEa-/*0YyZi/G[[(#x]pp6A6PSRYs@Zs(g(fRbe2+t4A/D-TnXG40
     A10evjB 9C2019 07 09j6n@Cut;7mCXOc0kOww#1g't[0R!FC!Au7kBZIrx4cM1:*v2qW(FG40
     A10evjB 9C2019 07 099mx?my?kU;EPR6Mf9ydMk81vhCGFLm9?F2fyQ1TF0_xFf?:e)A'OG40
     A10evjB  C2019 07 09.41523 00 36 19.26 -04 45 57.2    ~79Aq 17.8 GVNEOCP703
     A10evjB  C2019 07 09.42069 00 36 19.18 -04 45 29.5    ~79Aq       VNEOCP703
     A10evjB  C2019 07 09.42615 00 36 19.14 -04 45 06.7    ~79Aq 17.7 GVNEOCP703
     A10evjB KC2019 07 0948%6Lt;5tMUsYg(%wAXx-w8LZY-/m4J6;LRihgcov6NcT;_29Fc+585
     A10evjB KC2019 07 09rC-2u6jbHY*iBeYN)Q\DkH771B0/`jLpkbf\%h;c18cvKlY(#GQn585
     A10evjB KC2019 07 10_b6IqQ9gWcYt);yq0b(XML8*ToQ+djnTm?_`-=If7,[j#E,_Hfu8585
     A10evjB KC2019 07 110Ym%1RCUFRIf7/MT3mE?(iwMv\ubTKUd*HDoAK!sNA1]H?J;eDC.E94
     A10evjB KC2019 07 11up*1FGfq*!$NqXpvYCJTTatfq90:G_e,p1-6\/A7gIbEs^Y=.3KJE94
     A10evjB KC2019 07 11jE6a8:_A/R-F4g%)jh(La[5O,_?,uZxu\84W8C/yiwo0WxUE[sqBE94
     A10evjB  C2019 07 12.50713100 36 43.92 -01 06 10.7    ~7CKM 18.78oVNEOCPT08
     A10evjB  C2019 07 12.51036500 36 43.98 -01 05 56.6    ~7CKM 18.00oVNEOCPT08
     A10evjB  C2019 07 12.51847400 36 43.82 -01 05 23.6    ~7CKM 18.30oVNEOCPT08
     A10evjB  C2019 07 12.53269900 36 43.64 -01 04 22.8    ~7CKM 20.07oVNEOCPT08
     A10evjB KC2019 07 15.05062100 36 42.93 +01 40 58.4    ~7F1q 18.7 GVNEOCPJ95
     A10evjB KC2019 07 15.05476400 36 42.92 +01 41 14.4    ~7F1q 19.3 GVNEOCPJ95
     A10evjB KC2019 07 15.05891400 36 42.88 +01 41 30.4    ~7F1q 18.4 GVNEOCPJ95
     A10evjB KC2019 07 17T`q:EjtKyIak7?^[(]$ZSi7+D\f=-cKnZ?mK@BPsk7d)VH9`Bsm1106
     A10evjB KC2019 07 170x/leLSNQ!bqog7k=d6/NseQ7Xk4Q^ya\/-!5a)AbF813)V+mm:u106
     A10evjB KC2019 07 17.06587800 36 29.41 +03 45 24.5    ~7H2M 18.4 GVNEOCPJ95
     A10evjB KC2019 07 17.07543400 36 29.28 +03 45 58.4    ~7H2M 18.4 GVNEOCPJ95

Station data:
(106) Črni Vrh  (N45.945908 E14.071100)  Slovenia.  Observer J. Skvarč. 0.6-m
   f/3.3 Deltagraph + CCD.
(291) LPL/Spacewatch II  (N31.961669 W111.599905)  US/Arizona.  Observers J.
   V. Scotti, R. S. McMillan. 1.8-m f/2.7 reflector + CCD.
(585) Kyiv comet station  (N50.297989 E30.524620)  Ukraine.
(703) Catalina Sky Survey  (N32.417006 W110.732640)  US/Arizona.  Observers
   T. A. Pruyne, B. M. Africano, E. J. Christensen, G. A. Farneth, D. C.
   Fuls, A. R. Gibbs, A. D. Grauer, H. Groeller, J. A. Johnson, R. A.
   Kowalski, S. M. Larson, G. J. Leonard, R. L. Seaman, F. C. Shelly. 0.68 m
   Schmidt + 10K CCD.
(711) McDonald Observatory, Fort Davis  (N30.671481 W104.021500)  US/Texas.
   0.76-m f/3.0 reflector.
(850) Cordell-Lorenz Observatory, Sewanee  (N35.204094 W85.919800)
   US/Tennessee. 0.3-m Schmidt-Cassegrain.
(E94) Gisborne (Possum Observatory)  (S38.629922 E177.883310)  New Zealand.
(G40) Slooh.com Canary Islands Observatory  (N28.299720 W16.508260)  Canary
   Islands (Spain).  Observers G. Gašparović, Y. Chen. 0.43-m f/6.8 Corrected
   Dall-Kirkham + CCD.
(I47) Pierre Auger Observatory, Malargüe  (S35.495442 W69.449700)  Argentina.
(J95) Great Shefford  (N51.474969 W1.447003)  UK.  Observer P. Birtwhistle.
   0.40-m f/6.0 Schmidt-Cassegrain + CCD.
(L01) Višnjan Observatory, Tičan  (N45.290900 E13.749300)  Croatia.
   Observers K. Korlević, E. Pettarin. Measurer E. Pettarin. 1.0-m f/2.9
   reflector + CCD.
(Q62) iTelescope Observatory, Siding Spring  (S31.273289 E149.064420)
   Australia/NSW. 0.50-m f/6.8 astrograph + CCD + focal reducer, 0.70-m f/6.6
   astrograph + CCD.
(T05) ATLAS-HKO, Haleakala  (N20.707573 W156.257010)  US/Hawaii.  Observers
   L. Denneau, A. Heinze, H. Weiland, J. Tonry, H. Flewelling, A.
   Fitzsimmons, D. Young, B. Stalder. Measurers L. Denneau, A. Heinze, J.
   Tonry. 0.5-m f/2.0 Schmidt + CCD.
(T08) ATLAS-MLO, Mauna Loa  (N19.535772 W155.576400)  US/Hawaii.  Observers
   L. Denneau, A. Heinze, H. Weiland, J. Tonry, H. Flewelling, A.
   Fitzsimmons, D. Young, B. Stalder. Measurers L. Denneau, A. Heinze, J.
   Tonry. 0.5-m f/2.0 Schmidt + CCD.
(U69) iTelescope SRO Observatory, Auberry  (N37.070390 W119.413000)
   US/California. 0.61-m f/6.5 astrograph + CCD.

Orbital elements:  A10evjB
   Perihelion 2019 Jun 22.669368 +/- 0.00029 TT = 16:03:53 (JD 2458657.169368)
Epoch 2019 Jul 17.0 TT = JDT 2458681.5   Earth MOID: 0.0772   Ju: 0.4688
M   4.57514976 +/- 0.013            (J2000 ecliptic)          AutoNEOCP
n   0.18804073 +/- 0.000542         Peri.  332.52559 +/- 0.0024
a   3.01741302 +/- 0.00581          Node   307.58876 +/- 0.009
e   0.6476077 +/- 0.00066           Incl.   12.26923 +/- 0.008
